Wind_Speed
79 82 79 78 72 69 73 68 68 72 69 69 69 69 72 71 73 74 71 68 66 64 63 61 60 59 58 57 57 56 54 53 51 51 50 47 45 44 43 41 40 37 37 43 47 47 46 46 45 44 44 44 42 38 36 34 32 32 30 27 24 22 21 19 20 21 21 20 19 19 18 17 17 17 17 16 15 15 15 14 13 13 13 14 14 13 13 13
86 83 79 78 74 70 72 68 67 72 69 67 68 69 72 70 70 71 70 68 66 65 63 61 60 60 60 58 57 57 56 54 53 53 51 49 46 45 44 43 41 39 37 41 46 48 47 47 48 45 42 41 41 38 36 35 34 34 31 28 25 22 21 21 21 22 22 22 21 19 19 18 18 18 17 17 16 16 16 15 14 14 14 14 14 14 14 14
93 87 83 80 74 70 72 68 65 70 72 69 67 69 71 69 68 68 69 67 65 64 64 62 61 60 60 59 58 58 57 56 55 54 52 50 48 46 45 44 43 41 38 38 43 48 48 46 48 48 43 41 41 38 37 36 34 34 31 28 24 22 23 23 22 24 24 23 22 21 21 19 19 19 18 18 17 18 18 17 16 15 15 15 15 15 15 15
96 90 88 84 74 69 70 70 66 67 72 71 65 64 69 70 67 66 66 67 65 64 64 63 62 61 60 59 58 58 58 58 56 54 53 51 49 48 47 45 44 43 40 38 39 45 48 46 47 49 46 43 42 39 39 37 35 33 30 26 25 24 25 24 24 25 25 24 23 22 21 20 20 20 20 19 20 20 19 18 17 17 16 15 16 16 15 16
99 93 89 84 74 68 68 71 70 65 67 70 64 61 66 68 66 64 64 64 64 64 65 64 63 62 61 60 59 59 60 59 56 54 54 52 51 50 48 47 46 45 42 39 38 41 46 47 46 48 46 44 44 42 40 39 36 33 29 26 27 27 25 25 25 26 26 25 24 23 23 22 21 21 21 22 22 21 19 18 18 17 16 15 15 16 16 16
101 96 88 81 74 67 65 67 71 67 65 68 67 64 63 63 64 63 62 62 62 62 64 65 64 63 62 61 60 60 61 59 56 55 55 53 52 51 49 49 48 46 44 41 39 38 42 47 48 47 45 45 46 44 42 40 37 34 31 29 29 28 26 26 26 27 27 26 26 26 26 24 22 22 23 23 22 21 20 19 18 18 17 16 16 16 16 16
100 99 91 82 73 67 65 65 69 69 67 67 67 67 62 58 61 62 62 61 60 61 62 64 64 64 63 62 62 61 62 60 57 56 56 54 52 51 51 51 50 48 46 42 41 38 38 44 49 48 44 44 47 47 46 43 38 35 33 32 32 30 27 28 28 28 28 27 28 29 27 25 24 24 24 24 23 22 22 21 20 20 19 18 17 16 16 17
99 102 97 89 76 72 72 68 69 71 68 67 66 67 62 58 61 63 62 60 60 61 61 62 63 64 64 63 63 62 63 62 59 57 57 56 53 53 53 53 52 50 48 44 42 40 39 41 48 51 46 44 46 48 48 45 41 37 34 34 34 32 30 29 29 30 30 29 30 30 28 27 26 25 25 25 24 24 23 22 22 21 20 19 18 18 17 17
96 102 101 96 79 74 79 75 70 69 68 68 67 67 63 60 64 64 62 59 59 61 61 61 62 64 65 64 63 63 62 61 60 59 58 57 55 54 55 54 54 52 49 46 43 42 41 41 45 50 49 45 45 46 47 46 43 38 36 38 37 34 31 30 31 32 31 31 30 30 30 28 27 25 25 25 24 24 24 24 23 22 22 21 19 19 19 19
94 101 100 99 84 70 77 79 71 69 68 69 67 66 63 61 65 64 61 60 59 60 60 61 62 64 66 65 65 64 61 61 61 59 58 57 55 54 55 55 55 54 51 47 44 43 42 42 43 47 50 48 45 44 46 45 42 39 38 40 38 36 34 31 32 33 32 32 31 32 31 29 28 27 26 25 24 25 25 25 24 24 23 21 21 20 20 20
91 102 99 100 93 70 72 78 71 71 70 68 67 63 62 63 66 64 61 63 62 61 60 59 61 62 65 65 65 64 61 62 62 60 59 58 56 55 55 56 55 54 52 49 47 45 44 44 44 46 49 51 49 44 44 45 44 41 40 41 40 39 37 33 33 33 33 33 32 33 33 32 30 27 27 26 26 27 27 27 26 25 24 23 22 21 21 21
88 102 98 98 100 77 73 76 68 71 71 68 68 62 61 65 68 65 61 64 64 62 60 59 60 61 63 64 64 63 61 62 63 62 62 60 57 56 56 56 56 55 53 51 50 48 46 45 45 46 48 51 52 47 45 44 45 45 42 42 43 42 39 36 35 35 34 34 33 34 35 33 27 26 28 28 27 28 27 28 27 25 24 24 23 22 22 22
84 100 100 97 100 83 76 77 67 69 74 72 70 66 62 60 65 67 62 63 63 62 61 61 61 60 63 65 64 63 63 64 64 63 63 61 59 56 55 56 56 56 54 53 52 50 48 47 46 47 48 49 51 52 49 44 44 46 45 44 45 44 41 38 37 37 36 35 35 36 35 30 25 28 31 28 28 28 28 28 27 26 25 24 24 23 23 23
79 96 103 100 100 85 77 78 68 67 76 75 72 69 63 53 57 66 64 63 64 62 61 61 61 61 63 64 64 64 64 66 65 64 63 62 60 57 56 56 56 56 56 55 53 50 49 48 47 47 48 49 49 52 51 45 43 46 47 45 46 46 43 39 38 38 37 36 36 36 34 28 28 33 33 29 29 28 28 29 28 27 26 25 25 25 24 24
76 91 104 104 104 90 76 74 68 68 75 75 71 67 61 53 55 64 64 64 64 63 62 62 63 63 63 64 65 66 65 67 65 65 64 62 61 59 57 57 56 57 57 56 54 51 50 49 49 49 49 49 48 50 50 46 42 45 48 48 48 48 43 40 40 39 38 38 37 37 33 29 32 36 34 31 30 29 29 29 29 28 27 26 26 26 26 26
74 88 101 103 105 99 82 71 67 70 74 75 74 66 57 53 53 59 65 64 62 64 65 66 66 63 64 65 67 69 68 67 66 65 65 62 61 60 58 57 56 57 57 56 54 52 51 50 51 51 50 49 49 48 46 45 42 44 48 49 49 49 45 43 42 40 39 39 38 38 33 31 35 36 33 31 30 30 30 30 29 28 28 27 27 27 27 27
72 85 96 98 102 105 93 74 66 72 75 76 79 70 55 49 48 50 60 64 62 65 65 64 64 64 67 68 68 70 69 68 67 66 65 63 61 60 59 58 57 57 57 55 54 53 53 53 53 52 51 49 49 47 44 44 42 42 47 49 49 51 48 45 44 41 40 39 39 39 34 33 37 36 33 32 32 31 31 31 30 30 29 28 27 27 28 27
70 82 90 92 96 102 99 80 66 70 76 78 81 74 55 46 46 47 54 63 64 65 67 67 69 72 73 70 68 67 67 67 67 66 66 63 62 60 58 57 57 56 57 56 55 56 55 53 53 52 51 49 50 49 45 43 36 33 40 47 49 51 49 46 45 44 41 40 40 40 36 35 38 37 35 34 34 32 31 33 33 31 30 29 28 28 28 28
67 79 85 85 90 98 99 86 68 68 73 77 81 76 58 45 44 47 55 64 66 68 74 75 74 73 68 66 66 65 65 66 67 66 66 64 62 61 59 58 57 57 57 57 57 58 56 53 54 53 52 50 50 49 45 40 35 32 34 40 47 50 50 48 47 46 44 42 41 41 37 36 39 38 36 36 36 34 34 35 34 32 30 29 28 28 29 29
65 76 82 81 87 95 100 92 73 65 67 73 81 79 67 55 49 53 59 63 67 68 70 69 64 63 60 59 63 65 67 68 68 67 65 64 62 61 60 59 58 58 58 58 58 58 56 55 54 53 52 50 47 45 42 40 39 39 36 35 41 47 49 49 49 48 47 46 44 42 39 38 40 40 38 39 38 36 35 35 33 32 31 30 29 29 30 30
64 73 79 78 86 94 100 96 77 65 63 67 80 82 73 64 58 60 61 60 65 65 63 62 59 58 58 57 59 64 69 71 70 68 65 64 63 62 61 59 58 58 58 58 58 58 57 56 55 52 51 50 48 45 42 41 39 40 39 35 35 42 47 49 50 50 49 49 47 45 42 40 42 43 41 41 39 37 36 35 35 34 34 33 32 32 32 33
64 71 76 76 86 93 98 100 83 68 64 66 79 81 72 66 60 62 63 59 62 63 61 61 60 60 57 56 61 64 67 69 70 70 67 65 64 63 62 60 59 58 58 58 58 58 58 58 55 52 51 51 50 47 44 44 41 41 42 39 34 36 44 48 50 51 51 52 50 47 44 42 44 45 45 44 42 40 38 37 37 37 37 35 34 34 35 36
63 69 74 74 84 92 95 101 90 76 70 70 79 78 69 66 60 61 65 62 62 64 64 62 61 60 57 58 64 67 67 66 67 67 67 67 65 64 63 61 60 59 59 58 58 58 59 58 54 50 49 48 49 48 46 45 44 44 45 42 36 34 40 46 49 51 53 53 52 49 47 44 45 48 48 46 44 42 41 39 38 39 38 35 34 35 36 36
62 67 72 73 81 87 91 100 97 84 74 72 80 75 65 62 57 58 65 66 66 68 69 66 62 61 59 58 61 66 67 65 64 64 64 65 64 63 62 61 60 59 58 58 57 58 58 57 52 46 45 45 47 48 47 46 46 47 46 44 38 34 38 45 49 51 53 54 53 50 49 46 46 50 50 47 45 43 42 40 39 39 37 35 36 35 34 35
63 67 71 71 77 81 86 100 100 86 75 75 81 75 61 56 55 57 62 66 66 67 70 68 65 65 62 59 61 64 65 63 63 63 62 63 62 61 61 61 60 59 57 56 56 57 58 57 50 44 43 43 46 47 47 47 46 46 46 43 39 35 38 45 49 52 53 54 54 51 51 49 47 50 50 47 46 44 43 41 39 39 37 37 37 35 34 35
63 68 70 70 74 77 85 101 100 88 78 76 79 74 61 54 56 59 61 64 66 65 66 65 65 68 64 62 66 66 64 64 64 64 63 63 61 61 61 60 59 57 56 55 55 56 57 55 49 44 43 44 46 47 48 48 45 46 45 42 38 35 39 45 49 53 54 54 54 52 53 51 48 50 51 48 47 44 44 43 40 39 39 38 37 35 35 35
64 69 71 70 73 76 87 100 101 92 81 73 72 69 61 54 55 60 61 63 69 67 64 65 66 67 66 64 66 68 68 65 63 64 64 63 62 62 61 60 59 57 56 56 55 56 57 55 50 45 44 45 46 46 47 47 45 45 44 42 38 36 40 47 50 54 55 55 56 54 54 54 50 50 52 51 48 45 45 44 42 40 40 38 37 36 36 36
64 69 71 71 71 77 89 97 96 89 78 68 66 64 59 55 51 58 64 64 69 70 66 68 69 65 66 67 66 70 70 64 63 65 65 64 63 63 62 61 60 58 56 56 55 55 55 54 50 44 42 43 43 43 44 45 44 43 41 40 39 38 42 48 51 54 56 58 58 56 55 58 54 50 52 54 51 47 46 45 43 41 41 39 37 37 37 37
63 69 72 71 72 78 86 91 91 88 81 72 66 60 57 56 50 56 69 68 66 70 70 70 72 67 67 69 68 69 70 66 63 63 64 66 64 63 63 62 61 60 58 57 55 54 53 51 47 42 42 43 41 41 43 44 45 43 40 39 41 41 43 48 51 53 58 60 59 56 56 59 57 51 52 55 53 49 46 45 44 42 41 40 38 38 39 39
62 69 72 71 74 79 83 90 94 92 89 81 70 59 54 56 56 61 73 73 64 69 74 73 74 73 69 69 70 70 70 69 63 60 62 64 64 64 65 63 62 61 59 57 56 55 53 51 49 47 49 47 44 44 45 46 46 45 44 43 44 44 43 48 52 53 59 60 56 55 57 59 60 53 52 55 54 49 46 46 45 42 42 42 40 40 41 42
61 68 72 73 76 78 84 94 97 93 92 85 71 60 55 57 62 67 75 75 64 64 75 77 74 75 71 68 69 69 69 70 66 63 62 62 63 64 64 65 64 63 61 59 58 57 56 54 53 53 52 50 46 45 46 48 49 47 46 47 47 46 45 48 53 55 58 55 53 56 58 61 63 55 51 54 55 51 48 47 46 44 44 44 43 42 43 43
61 68 72 75 76 78 88 95 92 90 92 88 75 62 57 61 67 70 74 75 68 62 71 78 75 73 71 67 66 67 67 69 69 66 63 62 64 63 62 62 63 63 63 61 60 60 60 59 57 56 55 52 48 46 47 49 50 49 48 49 49 48 48 49 52 56 55 52 51 57 60 62 63 57 51 53 54 52 50 48 47 46 45 45 44 43 43 44
62 67 73 76 76 82 91 88 83 87 90 90 83 65 55 62 69 70 69 70 69 63 64 73 72 69 70 68 67 67 66 67 68 67 65 64 63 62 61 61 62 61 60 58 60 61 61 59 56 55 54 52 48 46 47 48 48 48 48 49 50 50 51 50 50 53 53 52 53 57 62 61 60 58 53 52 53 53 50 49 48 47 46 46 45 44 44 44
62 68 75 77 79 84 86 78 78 86 87 87 90 77 61 62 69 70 67 66 67 65 64 69 71 68 70 70 68 68 68 67 68 68 67 66 66 64 62 62 61 60 58 56 58 59 57 55 51 50 49 47 44 42 44 45 45 45 44 45 47 48 50 50 51 53 53 54 57 59 61 59 57 59 56 52 52 52 51 50 49 47 46 45 45 45 44 44
63 70 77 78 81 84 78 74 79 87 86 82 85 84 71 64 68 71 68 66 66 68 69 69 71 70 69 69 68 68 68 67 67 69 67 64 62 61 60 61 62 61 60 59 58 57 56 54 50 47 46 44 41 41 43 45 47 48 47 46 44 43 44 47 50 53 54 56 58 59 59 56 55 58 58 53 52 52 51 49 48 47 46 45 45 44 44 44
65 72 79 81 84 81 74 75 81 83 83 78 76 82 78 66 64 68 68 66 65 69 72 72 73 73 71 70 68 67 66 63 63 67 67 63 60 59 59 60 60 60 60 59 58 57 55 54 52 50 48 45 43 43 45 47 49 51 52 51 46 41 41 43 45 47 52 57 58 58 57 54 55 58 59 55 52 51 50 47 46 46 47 46 45 44 44 44
68 74 82 84 83 78 73 77 82 79 77 75 73 80 82 71 63 65 67 66 65 69 73 75 76 74 72 72 69 65 63 61 61 62 64 64 62 58 56 57 58 58 57 57 56 55 54 53 52 51 50 47 43 43 45 46 48 50 52 52 49 46 45 43 42 43 47 54 57 57 56 56 57 58 59 58 54 51 50 48 46 46 47 47 46 45 45 45
69 75 84 86 80 75 74 77 79 76 73 75 73 73 77 76 68 65 68 68 67 69 70 70 73 72 70 69 66 63 63 62 61 60 60 60 57 52 51 52 55 56 57 56 56 55 54 52 52 51 50 48 45 46 46 46 47 48 50 50 52 53 51 47 47 45 44 49 53 55 56 57 58 58 58 59 57 53 51 50 48 46 46 47 46 45 46 46
68 77 84 84 78 74 75 76 75 74 73 76 74 68 70 76 73 67 69 69 67 69 68 64 65 67 66 64 62 62 63 63 61 59 57 55 52 48 47 48 51 54 56 56 56 56 55 54 53 52 50 49 48 49 50 49 48 48 49 51 53 55 55 53 52 50 46 46 48 52 55 55 55 57 58 60 59 55 52 51 50 47 46 46 47 47 48 48
68 77 84 82 78 75 74 74 74 76 77 75 74 70 69 73 75 71 70 67 63 67 70 64 59 61 61 61 61 60 61 62 60 58 56 53 51 49 48 49 51 53 54 55 55 55 53 53 53 52 51 51 51 49 49 49 48 47 48 50 52 53 54 55 56 55 52 48 46 50 54 54 53 55 58 60 60 57 53 51 50 48 47 47 48 49 49 49
68 76 81 80 78 76 75 76 77 80 80 76 75 73 69 72 77 75 73 68 61 62 67 63 57 55 56 57 58 59 60 60 60 60 58 55 53 51 50 49 50 54 57 57 56 55 54 53 51 50 49 48 47 47 47 48 48 46 46 47 47 47 49 52 54 55 55 53 50 50 53 54 53 53 55 59 60 58 54 51 50 50 49 48 48 48 49 49
69 76 79 78 79 78 77 79 82 83 83 80 76 68 66 71 75 74 73 70 62 60 63 62 57 53 52 52 53 55 57 57 58 59 57 54 52 51 51 51 52 56 58 56 55 55 54 52 51 49 47 46 46 46 47 48 48 48 48 46 45 46 47 49 50 49 51 54 53 52 54 54 52 52 53 56 58 58 54 50 49 50 50 50 49 48 48 48
72 77 75 75 78 79 81 83 85 85 83 78 70 60 61 70 73 71 72 71 65 61 61 59 52 47 45 47 50 51 52 54 55 55 55 54 54 53 54 54 54 56 58 57 55 54 53 52 50 48 46 46 47 47 48 49 49 49 49 48 48 48 47 48 49 47 49 52 51 51 53 52 51 51 51 53 57 58 55 49 49 50 50 51 51 49 48 48
74 75 72 73 76 79 84 87 85 82 77 72 69 64 64 70 71 69 69 69 65 61 57 52 46 42 41 42 46 47 47 49 51 51 51 52 53 55 55 54 54 54 54 53 53 53 53 54 51 48 47 46 46 47 49 49 50 51 50 50 49 48 47 48 48 48 51 50 48 51 52 50 51 51 51 53 56 58 56 49 47 48 49 50 52 52 51 49
74 73 70 73 78 81 85 87 83 79 73 68 69 69 68 69 67 64 63 64 63 60 56 50 44 43 43 41 43 44 45 46 47 47 47 48 50 53 53 53 52 51 49 48 48 50 51 52 51 49 47 46 45 45 44 43 46 49 50 50 50 49 48 47 47 49 50 46 47 50 49 48 50 52 53 56 57 57 55 49 44 44 47 49 52 53 52 51
76 74 72 75 80 82 85 87 85 83 77 70 69 70 70 70 68 64 64 64 61 58 56 51 47 48 48 44 43 42 41 43 45 45 45 45 46 48 49 50 49 48 48 47 46 46 48 49 48 47 46 45 44 43 41 40 41 43 43 44 46 47 47 48 49 50 47 46 49 49 46 47 49 51 54 56 56 56 56 51 45 43 44 47 50 52 52 52
75 75 77 78 83 85 85 87 87 86 81 74 72 73 70 68 69 70 69 65 61 57 55 53 51 50 47 44 42 39 38 41 44 45 44 43 44 45 46 47 49 49 48 48 46 45 46 47 46 46 46 46 45 44 43 43 43 42 42 42 42 42 43 45 47 45 43 46 48 43 42 45 46 49 54 55 54 55 55 52 49 46 45 45 47 50 51 51
74 75 77 77 82 86 87 90 89 86 81 77 75 76 69 65 69 74 72 67 63 60 58 56 54 51 45 40 39 38 38 40 43 45 46 44 44 44 45 47 50 51 50 48 46 44 44 43 42 42 43 43 44 43 42 42 43 44 44 44 43 42 42 42 41 39 40 45 43 39 40 42 42 45 50 52 54 56 55 52 51 50 50 48 48 48 49 50
73 75 77 76 78 81 84 90 88 82 78 75 73 73 68 65 68 71 70 67 65 62 58 54 51 47 43 41 41 40 38 37 40 44 45 46 46 46 48 50 52 53 54 51 46 42 40 40 40 42 42 42 42 42 41 42 43 44 45 45 45 45 44 42 39 37 41 43 40 40 43 42 42 44 45 47 52 55 56 55 53 52 52 52 50 50 50 51
70 74 78 78 78 77 81 87 83 78 75 73 72 71 68 67 67 68 68 66 65 63 56 50 47 43 41 41 42 40 35 31 32 36 41 45 48 50 51 52 52 54 58 57 52 44 39 37 39 41 43 44 44 42 42 43 43 43 44 45 46 46 45 43 40 40 42 41 39 42 44 42 43 43 43 45 50 53 55 56 54 51 51 51 50 50 51 51
65 70 73 75 77 79 83 85 80 77 76 74 73 71 71 71 68 66 65 62 62 62 55 49 48 45 44 43 40 36 33 31 33 36 39 42 46 49 51 51 53 56 58 60 58 52 46 43 41 40 43 45 44 44 44 43 43 44 45 44 44 45 45 44 43 43 42 38 38 42 41 40 41 42 42 44 47 51 54 55 54 52 50 49 49 50 51 51
65 69 72 71 75 80 83 83 80 78 77 75 74 72 72 71 67 64 60 55 56 60 56 51 49 48 46 43 38 36 37 39 41 41 39 39 41 44 46 47 50 54 55 56 55 53 51 50 48 45 45 44 44 44 44 43 44 45 43 41 42 43 44 45 45 44 42 40 41 41 37 36 38 38 39 42 45 49 52 53 53 51 50 49 50 50 51 50
Wind_Direction
204 204 206 207 206 211 212 210 212 211 211 215 213 214 219 219 219 219 219 219 219 219 217 215 213 212 212 211 212 212 212 210 210 212 213 214 213 211 211 212 211 208 206 204 205 209 211 211 212 215 217 216 217 221 223 222 225 230 231 231 229 230 229 218 212 215 217 216 213 210 208 207 207 210 212 210 208 206 206 202 196 194 182 170 170 174 169 164
207 205 205 207 205 208 212 211 213 211 207 210 210 212 216 218 220 220 220 220 218 219 218 216 214 213 211 211 212 213 212 211 210 212 212 213 214 213 211 212 212 209 207 205 206 210 212 212 213 216 217 216 215 218 222 225 227 228 229 230 227 227 227 218 214 216 216 216 215 212 210 209 208 210 212 210 208 207 206 202 197 194 184 172 170 173 171 165
208 206 205 206 202 203 209 209 211 212 208 206 208 211 215 216 219 221 220 220 218 218 218 216 215 214 212 211 211 212 212 212 210 211 212 212 214 215 214 212 212 210 208 206 206 210 214 214 214 216 218 215 214 217 223 226 226 227 227 226 223 224 226 218 214 217 216 216 215 213 212 209 208 208 211 211 207 206 206 202 198 196 189 177 172 173 174 169
207 204 203 204 200 197 204 207 208 212 210 207 207 210 213 215 218 220 220 220 219 218 218 217 216 215 214 211 211 212 213 212 210 211 213 212 214 216 216 215 213 211 209 207 205 209 214 215 214 215 219 216 214 218 224 224 223 226 225 221 221 222 225 219 215 219 216 215 216 214 214 211 208 208 210 210 206 204 204 202 200 197 192 184 177 176 177 176
206 203 200 200 198 194 197 204 207 208 209 207 205 206 210 213 216 219 219 220 219 218 218 218 216 215 214 212 211 212 213 212 210 211 214 212 214 215 216 218 217 214 210 209 208 208 213 217 216 215 217 215 213 217 222 223 221 224 224 221 224 223 224 220 217 221 219 214 216 215 215 212 208 210 210 210 207 204 202 202 203 201 195 188 183 182 183 182
206 205 200 197 197 194 192 200 205 205 206 206 204 204 206 209 214 217 218 219 218 217 218 217 216 215 215 212 211 212 213 212 210 212 214 213 213 214 216 218 219 218 212 209 210 210 213 218 220 217 217 215 213 216 220 223 222 222 225 226 228 226 224 222 218 223 222 215 216 217 216 212 207 210 213 213 209 203 201 199 202 203 199 194 188 187 190 188
206 206 204 200 198 194 191 196 203 203 204 205 203 204 204 205 211 215 215 216 216 216 217 217 216 216 215 213 211 212 212 212 211 213 214 213 213 213 215 218 220 221 216 210 210 211 213 218 221 221 220 217 215 217 219 223 223 223 226 229 231 229 226 224 219 222 224 217 216 219 219 215 208 208 213 215 208 202 201 199 200 201 201 200 194 192 195 194
206 207 208 208 201 195 196 196 200 202 200 201 200 201 202 202 207 213 212 214 216 216 217 216 216 216 216 215 212 212 212 211 211 212 214 214 212 212 214 216 219 221 219 213 211 212 214 217 220 222 223 221 218 219 221 222 223 222 224 230 233 231 230 228 221 220 224 220 218 220 221 219 214 209 211 214 208 203 202 199 200 202 202 201 198 196 197 199
206 207 209 210 201 192 198 199 199 201 199 198 198 199 203 204 207 211 212 213 215 216 216 215 215 215 215 216 214 213 213 213 213 212 214 215 213 213 213 215 217 220 220 217 213 213 214 217 220 222 224 224 220 221 222 222 222 220 223 230 232 232 234 232 226 221 223 223 220 221 222 221 218 212 211 214 209 206 204 201 201 203 203 202 201 200 199 202
204 205 206 209 201 187 193 199 198 200 201 200 198 198 202 208 209 210 210 211 213 212 212 214 215 216 215 215 215 213 212 214 215 214 215 216 215 214 214 215 217 219 221 219 216 215 216 217 220 222 224 226 224 222 222 223 223 220 222 229 231 233 235 235 230 224 223 225 222 223 224 222 220 214 212 212 209 206 205 204 203 203 204 202 203 204 203 204
204 203 204 205 202 189 188 195 196 197 200 201 198 195 197 205 209 209 209 210 213 212 211 212 214 216 215 214 216 214 212 214 215 215 216 218 216 215 216 216 217 219 221 220 217 217 217 217 219 221 223 225 226 226 224 223 224 222 223 229 231 233 234 235 233 227 225 226 224 224 224 223 221 217 214 212 209 207 204 204 204 203 204 204 204 205 206 207
203 202 203 203 204 195 187 192 194 194 196 197 197 194 195 202 206 206 208 210 213 214 214 213 213 215 215 214 214 212 212 215 215 214 215 217 217 216 215 215 217 219 220 221 219 216 218 218 219 222 224 225 226 228 229 227 225 222 222 227 231 232 232 233 234 230 226 226 227 225 225 225 222 221 220 214 211 210 207 206 205 204 205 206 205 206 208 207
203 202 203 204 204 197 188 191 194 194 192 192 192 193 197 203 206 206 208 211 213 215 215 215 214 214 215 214 213 212 211 214 216 215 214 215 216 216 215 215 216 218 220 221 220 216 217 219 219 222 224 225 225 227 231 233 230 223 221 225 230 233 232 234 235 231 227 226 228 228 228 224 220 224 224 217 214 213 211 209 206 205 206 207 208 209 209 208
202 202 203 205 204 196 187 189 192 194 192 190 189 192 196 202 209 211 210 210 213 215 215 213 213 213 214 214 213 212 211 213 215 215 215 215 216 217 216 217 217 218 221 223 222 218 217 219 220 221 224 225 224 226 229 234 233 226 221 222 229 232 231 234 235 232 229 226 229 231 229 222 219 224 225 218 215 215 215 212 208 207 207 207 210 211 211 211
202 201 203 206 206 197 185 184 188 192 194 191 187 189 192 197 208 214 213 210 208 211 213 211 210 211 212 213 212 212 212 213 214 215 215 214 216 218 218 218 218 218 221 224 224 221 219 219 220 221 223 224 223 224 227 232 234 227 222 221 225 230 230 232 236 233 230 227 228 232 228 220 221 225 225 220 217 216 217 216 211 208 209 208 211 213 213 215
202 201 203 206 207 202 191 185 185 190 194 191 185 185 189 193 202 210 212 211 208 210 212 211 211 211 211 212 212 211 211 212 213 215 216 214 215 217 218 218 218 218 221 225 226 223 221 220 220 221 222 223 223 224 226 231 234 229 224 222 223 228 228 230 235 233 231 228 227 231 227 220 224 228 227 224 220 218 219 219 215 211 211 211 212 214 215 217
202 201 204 207 207 206 201 192 183 187 194 190 184 185 188 189 194 204 209 211 211 210 210 211 211 211 210 211 211 211 211 212 213 215 216 215 214 216 218 218 218 218 220 224 227 225 223 222 222 222 223 223 223 224 225 229 234 232 229 226 225 227 227 228 232 231 231 230 228 230 227 220 225 228 227 226 224 221 220 221 219 214 213 213 213 215 216 217
203 201 205 208 208 208 205 197 184 184 192 191 186 186 187 186 190 198 205 208 211 211 208 206 205 205 208 211 211 211 212 212 213 214 215 216 215 215 217 218 217 218 219 222 225 226 225 225 225 225 225 224 224 225 226 229 235 238 234 231 228 228 228 228 231 231 231 232 230 230 227 222 225 227 225 226 226 222 221 222 221 217 214 215 215 216 217 217
203 201 204 208 207 207 205 198 186 182 187 191 190 187 186 187 189 197 204 207 209 209 207 204 204 208 213 216 215 211 211 212 213 214 214 216 215 215 217 218 218 218 220 221 223 226 227 226 227 227 226 225 226 227 228 230 234 239 239 235 231 230 229 229 231 232 233 233 232 230 227 223 225 227 225 225 225 223 222 223 223 220 217 217 218 219 219 217
203 201 204 207 206 206 205 199 188 182 185 191 193 191 191 190 190 198 204 208 210 210 210 209 209 214 218 219 217 213 210 211 213 213 214 215 216 216 217 219 219 219 220 221 224 227 228 228 228 228 228 228 230 232 233 233 236 239 241 239 235 232 230 230 232 234 234 234 234 231 226 223 225 226 225 225 225 224 224 224 225 224 220 218 217 219 220 218
204 203 203 205 206 205 205 200 189 182 184 189 194 195 195 194 191 196 201 206 211 211 212 211 209 212 214 213 215 215 213 212 212 212 213 214 216 217 218 218 220 221 221 222 224 227 228 229 229 229 229 229 231 233 235 235 237 240 241 242 240 235 231 230 232 234 235 235 234 230 225 222 225 226 225 226 225 224 225 225 225 225 223 219 216 217 218 219
205 204 203 204 205 205 205 201 191 184 185 187 193 194 194 195 195 196 198 204 210 210 212 212 208 208 208 208 209 211 213 214 212 211 210 212 215 216 217 218 219 221 222 223 225 226 228 229 230 230 230 230 232 233 234 235 237 238 241 242 243 240 234 231 232 233 235 236 234 230 225 222 224 227 226 225 223 223 224 223 224 225 224 222 218 217 218 218
206 205 204 203 203 205 206 203 195 188 186 186 190 192 192 192 194 197 198 201 208 211 213 213 210 208 206 205 206 207 210 212 213 213 212 211 212 214 216 217 218 220 222 223 225 226 228 231 232 231 231 231 233 234 234 235 237 238 240 241 244 247 241 234 233 233 234 236 234 229 226 222 223 228 228 225 223 222 224 223 224 227 227 226 224 221 221 220
206 206 206 202 203 205 206 204 198 190 186 184 187 190 190 189 191 198 199 198 205 212 212 212 210 209 208 207 206 207 208 210 212 212 214 213 213 214 215 217 218 219 222 222 224 227 228 232 234 233 234 233 234 236 236 237 238 239 241 241 245 254 248 237 235 235 234 236 235 230 227 223 222 228 229 227 225 224 226 226 225 228 229 228 228 226 224 223
206 205 206 203 203 204 204 205 199 191 186 183 184 188 189 188 189 195 197 198 207 212 207 206 208 208 208 207 207 207 207 209 210 210 212 215 215 216 216 217 219 219 222 223 225 227 228 231 234 233 233 234 234 236 238 240 240 240 242 243 247 257 252 239 236 237 234 234 234 231 229 225 222 228 231 228 226 225 226 228 227 229 229 228 230 228 226 224
206 206 206 204 203 203 204 204 199 194 189 182 183 187 190 191 188 190 195 199 207 210 204 202 206 207 205 205 205 205 205 208 210 209 210 212 214 217 217 218 220 220 222 224 226 228 229 231 234 233 232 233 233 233 236 239 240 240 241 242 247 254 250 240 237 237 235 234 233 230 231 228 222 227 232 230 228 225 226 229 228 228 229 229 229 229 228 226
206 206 207 206 204 203 203 202 201 199 190 180 182 185 190 193 188 188 194 201 206 209 208 205 204 205 205 205 205 204 205 206 208 209 210 211 211 213 215 217 219 221 223 226 227 227 229 232 233 233 233 235 236 235 236 238 239 239 239 241 245 249 245 239 237 237 236 234 232 229 231 231 224 224 230 231 229 225 225 228 228 227 229 229 228 230 230 229
206 207 208 207 204 203 202 202 205 200 185 178 182 183 189 192 188 190 196 204 208 207 208 207 204 204 205 204 205 206 205 204 206 208 209 211 211 211 213 215 216 219 222 225 228 228 230 234 236 235 236 238 239 239 238 239 240 240 239 240 244 247 244 239 237 237 236 234 232 229 230 234 229 222 227 231 230 227 224 226 228 227 229 229 228 229 230 231
206 207 208 207 204 202 201 203 203 196 186 187 187 185 189 191 192 196 199 205 208 205 205 206 203 203 203 203 205 207 205 203 206 209 208 209 211 211 212 213 215 218 220 222 224 226 228 233 236 236 236 238 238 238 239 239 240 240 239 241 245 247 247 242 239 238 237 234 233 231 230 236 236 224 223 231 232 229 226 225 227 228 230 230 228 227 229 230
207 208 208 207 204 201 201 201 199 196 195 195 192 191 194 198 202 203 203 206 206 203 204 205 205 204 203 203 204 206 205 202 204 208 211 211 211 211 211 212 214 217 220 221 222 223 225 229 232 233 235 236 235 234 236 237 238 237 236 239 243 247 249 246 242 240 240 238 235 233 230 234 238 228 221 229 233 229 227 226 226 228 230 231 228 226 227 228
207 208 209 207 203 201 200 199 199 200 201 198 195 196 200 205 208 207 205 206 205 203 203 204 206 206 205 205 205 206 205 202 202 205 209 211 212 213 213 213 214 215 217 220 221 222 224 226 229 230 232 234 232 231 232 234 236 235 234 237 241 245 247 247 244 243 243 241 237 237 233 232 238 233 221 226 232 229 227 227 226 226 228 231 230 227 227 228
208 209 210 206 203 201 198 198 201 203 203 201 196 196 200 204 208 207 204 204 205 206 203 203 205 206 206 207 209 209 207 204 202 204 207 209 211 214 216 217 218 218 218 219 220 222 224 225 227 229 231 233 231 229 230 233 235 234 233 235 238 241 243 245 246 246 246 245 241 240 236 232 238 238 225 223 229 230 228 228 227 227 228 230 231 230 229 230
208 209 209 205 202 199 196 197 202 203 204 204 198 196 203 207 209 208 204 204 206 206 205 203 203 205 208 209 211 211 210 207 204 204 207 209 211 212 215 217 219 220 221 222 223 223 224 226 227 229 233 235 236 235 235 236 238 238 237 236 238 239 242 245 249 251 250 248 246 243 239 236 240 241 232 224 226 230 230 229 229 228 229 230 232 232 232 232
209 209 208 205 200 197 196 198 201 202 203 205 200 199 206 210 211 210 207 207 207 205 205 202 200 203 207 210 211 212 211 209 206 206 208 208 210 211 212 215 217 219 220 222 225 226 227 229 230 233 236 239 241 240 240 239 239 239 239 240 241 243 247 250 253 255 253 250 250 247 243 240 241 242 238 229 226 229 230 230 230 230 230 232 233 234 234 234
208 208 207 204 198 196 196 197 199 201 202 203 202 202 208 212 212 212 212 211 208 205 204 203 202 203 205 208 210 211 212 210 207 208 210 211 213 213 214 216 217 219 219 221 224 225 227 228 229 232 236 238 239 238 238 238 237 237 236 238 241 245 249 251 252 253 252 251 252 251 248 245 243 244 243 235 228 229 231 231 232 232 233 234 234 235 236 237
207 207 206 202 198 197 196 194 198 201 201 199 198 201 207 212 214 215 215 213 211 209 205 204 204 205 205 205 206 209 211 211 210 209 209 212 215 215 217 218 218 219 220 222 224 225 227 229 228 229 232 233 233 233 234 236 236 237 237 238 242 245 245 246 248 250 249 250 251 252 251 248 245 244 245 241 234 230 232 233 233 234 235 235 236 236 237 237
205 206 205 201 197 196 194 194 197 199 198 195 195 200 204 208 213 217 216 213 212 211 207 205 205 205 205 204 204 206 209 210 211 211 210 212 213 214 216 218 219 221 222 223 225 226 227 230 231 232 233 233 232 233 235 235 236 238 238 239 240 242 243 245 249 252 252 251 250 251 251 248 245 244 244 243 238 232 232 234 233 234 235 236 236 237 237 237
204 206 204 200 197 196 192 193 196 196 194 191 194 203 206 204 208 214 215 213 212 209 205 205 204 203 204 206 207 209 211 211 212 211 211 213 214 215 218 220 220 220 222 223 224 226 227 229 231 232 234 235 233 233 235 236 239 240 240 240 240 242 244 247 250 253 256 256 252 252 252 249 246 245 244 243 241 235 233 234 235 234 235 238 239 239 238 238
202 205 203 199 197 195 192 192 193 192 191 189 191 202 208 206 207 212 212 211 210 206 203 203 203 202 203 206 210 213 214 216 216 214 213 215 216 219 221 223 223 223 223 223 225 226 227 229 230 231 233 234 233 233 235 236 239 241 242 242 242 244 246 248 251 253 256 259 257 254 253 251 249 247 246 244 242 238 234 234 237 237 236 237 239 240 240 239
201 204 202 199 197 195 192 191 190 190 191 191 191 198 206 208 209 211 211 209 207 206 206 206 207 209 209 208 210 213 214 216 218 217 217 218 218 219 221 222 222 223 224 225 227 227 227 228 230 230 232 233 234 235 236 237 240 242 244 245 245 246 247 248 250 251 253 257 259 257 253 251 250 248 247 245 244 240 237 235 237 239 239 238 238 240 242 242
200 203 201 198 198 195 191 189 189 189 190 191 194 198 203 207 210 210 210 210 210 210 211 209 207 209 212 212 212 213 215 216 217 218 218 219 218 219 222 224 222 221 223 225 227 228 229 230 231 232 233 235 236 236 235 237 239 242 245 246 246 247 247 248 250 252 253 255 258 259 255 250 249 250 248 247 246 243 240 238 238 239 241 241 240 240 242 244
200 202 199 197 197 194 190 189 188 188 188 190 196 200 199 201 206 208 208 210 211 210 208 206 206 207 211 215 218 217 216 217 218 219 220 219 219 220 222 223 222 221 223 226 227 229 230 231 233 234 234 235 237 236 237 239 241 242 244 244 244 243 243 246 249 250 252 253 255 259 258 252 249 251 250 248 247 246 244 241 240 240 241 242 242 242 242 244
199 200 198 198 197 192 189 188 187 187 189 191 197 203 201 199 202 206 207 210 211 208 204 204 206 209 210 213 217 218 217 217 218 220 220 219 218 219 219 220 221 221 222 224 226 228 230 231 232 234 235 235 237 238 240 242 244 244 245 245 245 243 242 243 245 246 247 249 253 259 260 254 248 249 251 250 248 246 245 243 242 242 241 242 243 243 243 243
198 199 198 198 196 192 190 188 188 190 191 192 198 202 201 199 201 204 207 209 211 209 205 203 203 205 207 209 211 215 218 218 218 219 220 221 220 220 220 220 221 223 224 226 228 229 231 232 233 235 237 237 238 240 242 244 246 247 247 246 244 243 241 241 243 243 244 247 251 256 261 257 249 246 248 249 249 247 244 243 243 243 242 242 243 244 244 244
197 198 197 196 194 192 189 187 189 192 191 191 194 195 196 198 202 205 207 209 212 210 204 200 199 201 204 205 207 211 215 218 220 220 220 221 222 223 223 222 222 224 225 228 230 232 235 237 238 241 243 243 244 245 247 250 252 251 249 247 244 241 239 239 240 241 244 247 249 253 260 260 252 245 244 246 247 248 245 242 241 242 241 242 243 243 245 246
198 196 194 194 193 192 189 187 190 194 194 194 193 192 193 197 201 204 206 209 210 207 202 201 201 203 206 206 207 209 210 213 217 220 222 224 224 224 225 224 224 224 225 226 229 232 235 237 238 241 243 245 246 245 244 247 249 250 249 249 247 244 241 239 238 239 243 245 245 248 255 257 252 247 245 245 246 247 246 243 241 241 241 241 242 243 245 246
201 198 193 192 192 190 188 188 188 191 194 196 196 195 195 198 201 202 203 206 206 204 204 205 206 207 209 209 209 209 208 209 211 213 217 223 226 226 224 223 222 222 224 225 224 225 228 230 232 235 237 239 239 238 239 241 244 246 245 245 245 246 246 245 244 244 246 247 245 247 253 255 253 249 247 247 247 247 247 245 243 241 241 241 242 243 244 246
201 198 193 192 191 188 188 187 185 186 189 192 195 197 198 200 202 201 201 204 206 206 207 208 208 209 212 215 214 212 211 210 208 208 209 213 219 223 223 221 220 221 223 222 219 221 224 226 229 232 234 235 237 237 238 242 245 246 246 244 243 243 244 246 246 246 248 249 247 249 253 254 254 254 253 251 249 248 248 247 246 243 242 242 242 242 243 244
198 195 192 193 191 187 186 186 185 186 190 192 194 196 197 197 199 201 204 206 207 206 207 208 209 211 215 217 218 219 219 215 210 209 210 211 213 217 219 221 222 222 222 222 221 225 229 231 233 236 238 238 239 239 239 242 245 246 246 246 246 245 244 244 242 241 243 245 244 245 247 246 249 254 255 253 251 249 248 248 247 245 244 243 243 243 242 243
198 194 191 190 189 186 185 185 186 189 191 193 194 194 195 195 197 201 205 208 210 207 205 206 209 213 217 218 220 222 224 223 221 222 221 218 216 216 219 223 225 226 226 225 226 230 234 236 238 240 241 241 242 242 242 243 245 246 246 245 246 247 248 247 244 242 242 242 242 243 243 243 245 248 249 250 250 249 248 247 247 246 245 244 243 244 244 244
196 194 191 188 185 186 187 187 188 190 191 191 193 194 195 196 198 201 205 212 214 208 205 206 207 209 214 218 221 222 221 222 224 225 227 225 223 222 222 222 223 224 225 225 227 231 234 236 238 242 242 241 242 244 244 245 246 247 246 246 248 249 249 249 248 247 246 246 245 244 244 243 244 245 246 248 249 248 247 245 245 244 243 241 241 242 244 245
193 190 190 189 186 186 187 189 190 190 191 190 191 194 196 197 199 203 207 210 208 204 206 211 211 210 212 214 217 219 220 221 218 216 218 222 224 225 225 225 225 225 226 228 232 237 240 241 241 242 242 242 242 244 245 246 246 247 248 251 254 253 251 251 251 250 250 248 247 246 246 248 248 247 246 248 249 250 249 247 246 244 241 240 241 243 246 248
Height
5609 5618 5624 5631 5639 5644 5648 5654 5659 5666 5674 5681 5689 5695 5698 5702 5708 5713 5720 5726 5731 5736 5741 5746 5751 5755 5760 5764 5768 5771 5774 5778 5781 5784 5787 5791 5794 5797 5800 5802 5805 5807 5809 5812 5815 5817 5820 5823 5826 5827 5830 5833 5835 5837 5839 5841 5843 5844 5846 5849 5852 5855 5857 5859 5860 5861 5862 5863 5864 5866 5867 5869 5870 5871 5872 5873 5874 5875 5875 5875 5876 5876 5876 5876 5876 5876 5876 5877
5604 5612 5620 5626 5633 5639 5644 5651 5656 5661 5668 5675 5683 5690 5694 5699 5704 5709 5715 5721 5727 5732 5737 5742 5747 5751 5756 5760 5764 5768 5771 5774 5777 5781 5785 5789 5791 5794 5797 5800 5802 5805 5807 5810 5813 5815 5817 5820 5823 5825 5827 5831 5833 5835 5837 5839 5841 5842 5845 5848 5851 5853 5855 5857 5858 5860 5861 5861 5863 5865 5867 5868 5869 5870 5872 5873 5874 5874 5874 5875 5875 5876 5876 5876 5876 5876 5877 5877
5598 5606 5614 5620 5626 5632 5640 5647 5652 5657 5663 5669 5677 5685 5690 5695 5699 5704 5710 5716 5722 5728 5732 5738 5743 5747 5752 5757 5760 5764 5767 5770 5774 5778 5782 5786 5789 5791 5794 5797 5800 5802 5805 5807 5811 5813 5816 5818 5821 5822 5825 5828 5830 5833 5834 5836 5839 5840 5843 5847 5849 5851 5852 5854 5857 5858 5859 5860 5862 5864 5865 5867 5868 5869 5870 5872 5873 5873 5873 5874 5874 5876 5876 5876 5875 5876 5877 5877
5591 5598 5606 5614 5619 5626 5634 5641 5647 5653 5659 5665 5673 5679 5684 5689 5694 5700 5705 5711 5718 5723 5728 5733 5739 5743 5748 5753 5757 5760 5764 5766 5771 5776 5779 5783 5786 5789 5792 5795 5797 5800 5802 5805 5808 5811 5814 5816 5817 5819 5822 5825 5828 5830 5831 5834 5837 5839 5842 5845 5847 5848 5850 5852 5854 5855 5857 5859 5860 5862 5864 5866 5867 5868 5869 5871 5871 5871 5873 5874 5874 5875 5876 5876 5876 5876 5877 5877
5583 5591 5598 5607 5614 5619 5627 5635 5642 5649 5655 5661 5668 5673 5678 5684 5691 5696 5701 5706 5713 5718 5723 5728 5734 5739 5744 5749 5753 5756 5759 5762 5769 5773 5775 5779 5783 5785 5788 5791 5794 5797 5800 5803 5805 5808 5811 5813 5814 5816 5819 5822 5825 5827 5828 5831 5834 5838 5841 5844 5844 5846 5848 5850 5852 5854 5856 5857 5859 5861 5862 5864 5866 5867 5868 5869 5870 5871 5872 5874 5874 5875 5875 5876 5876 5877 5877 5877
5576 5583 5591 5599 5608 5614 5620 5629 5638 5645 5651 5656 5663 5668 5674 5682 5688 5693 5698 5702 5708 5713 5718 5723 5729 5734 5739 5744 5748 5751 5755 5761 5767 5769 5771 5776 5779 5782 5785 5788 5791 5794 5797 5800 5802 5805 5807 5810 5812 5814 5816 5819 5822 5824 5826 5828 5832 5836 5840 5841 5842 5844 5846 5848 5850 5852 5854 5856 5858 5858 5859 5861 5864 5866 5867 5867 5869 5871 5872 5873 5874 5875 5875 5875 5876 5877 5877 5878
5569 5576 5583 5592 5602 5609 5615 5624 5632 5640 5645 5651 5659 5665 5672 5680 5684 5689 5694 5697 5703 5708 5713 5719 5724 5729 5734 5739 5743 5747 5752 5758 5763 5765 5768 5772 5775 5779 5782 5784 5787 5790 5794 5797 5800 5802 5805 5807 5809 5811 5813 5816 5819 5821 5824 5826 5830 5834 5837 5839 5839 5842 5844 5846 5848 5850 5852 5854 5855 5856 5858 5860 5862 5863 5865 5867 5868 5870 5870 5872 5873 5874 5874 5874 5875 5876 5878 5878
5563 5570 5576 5586 5596 5603 5610 5618 5626 5634 5640 5648 5656 5662 5670 5675 5679 5684 5690 5694 5699 5703 5709 5714 5720 5725 5730 5735 5739 5743 5748 5753 5758 5762 5765 5768 5772 5775 5778 5781 5783 5786 5789 5794 5797 5800 5802 5804 5806 5809 5810 5814 5817 5819 5821 5824 5827 5832 5835 5836 5837 5840 5842 5844 5846 5848 5850 5852 5853 5855 5857 5859 5860 5862 5863 5865 5867 5868 5869 5871 5872 5873 5873 5874 5874 5875 5877 5878
5558 5565 5572 5581 5590 5597 5605 5614 5621 5629 5635 5643 5651 5659 5667 5671 5674 5680 5686 5691 5694 5699 5705 5711 5716 5720 5725 5731 5736 5740 5747 5751 5754 5758 5761 5764 5768 5772 5774 5777 5780 5783 5786 5791 5795 5797 5800 5802 5804 5807 5808 5811 5814 5816 5818 5821 5824 5829 5832 5833 5835 5838 5840 5843 5844 5846 5848 5849 5852 5854 5855 5857 5859 5861 5862 5864 5866 5868 5869 5870 5870 5872 5873 5873 5874 5874 5876 5877
5552 5561 5568 5576 5586 5592 5601 5611 5617 5624 5632 5639 5648 5656 5663 5668 5671 5676 5682 5686 5690 5695 5701 5706 5711 5715 5720 5726 5730 5737 5745 5748 5750 5755 5758 5761 5765 5768 5771 5774 5777 5780 5783 5788 5792 5794 5797 5799 5802 5804 5806 5808 5810 5813 5816 5817 5821 5826 5829 5830 5833 5836 5839 5841 5843 5844 5846 5848 5850 5852 5853 5855 5857 5859 5860 5863 5865 5866 5868 5869 5870 5871 5872 5873 5873 5874 5875 5876
5546 5556 5564 5572 5580 5587 5596 5606 5613 5620 5628 5637 5646 5653 5660 5665 5668 5672 5677 5682 5686 5691 5696 5702 5708 5711 5717 5722 5728 5736 5742 5742 5745 5752 5755 5757 5762 5765 5768 5772 5775 5778 5781 5785 5788 5791 5794 5796 5799 5801 5803 5805 5807 5810 5812 5815 5819 5823 5826 5828 5831 5834 5836 5839 5841 5843 5845 5846 5848 5850 5851 5852 5855 5858 5859 5861 5863 5864 5866 5867 5869 5870 5871 5872 5872 5873 5874 5876
5541 5551 5560 5567 5574 5583 5592 5601 5609 5615 5623 5633 5643 5651 5657 5660 5663 5668 5673 5677 5682 5688 5693 5697 5703 5708 5713 5718 5724 5732 5737 5737 5740 5745 5749 5753 5757 5761 5765 5769 5772 5775 5779 5782 5784 5787 5790 5793 5796 5798 5800 5802 5805 5806 5809 5813 5816 5820 5823 5825 5828 5830 5834 5837 5838 5841 5843 5845 5846 5847 5848 5851 5856 5858 5858 5859 5862 5863 5865 5866 5867 5869 5870 5871 5872 5873 5874 5875
5535 5545 5554 5561 5569 5579 5588 5596 5605 5611 5619 5629 5638 5647 5654 5657 5661 5665 5668 5673 5678 5684 5689 5694 5699 5705 5708 5713 5720 5726 5729 5731 5735 5740 5745 5749 5753 5758 5762 5766 5769 5771 5775 5777 5780 5784 5787 5789 5793 5795 5796 5799 5802 5804 5807 5811 5814 5817 5820 5823 5826 5828 5831 5834 5836 5838 5840 5842 5844 5845 5847 5852 5857 5856 5855 5858 5860 5862 5864 5865 5866 5868 5869 5870 5871 5872 5873 5874
5531 5540 5549 5555 5563 5575 5584 5592 5601 5608 5615 5625 5634 5642 5650 5656 5659 5662 5666 5670 5675 5681 5685 5689 5695 5699 5702 5709 5715 5720 5723 5725 5729 5736 5741 5746 5751 5755 5759 5762 5766 5769 5771 5773 5776 5780 5783 5786 5790 5792 5793 5796 5799 5802 5805 5808 5811 5814 5817 5820 5823 5824 5829 5832 5833 5836 5838 5840 5842 5843 5847 5853 5854 5851 5852 5856 5858 5860 5862 5863 5865 5866 5868 5869 5870 5871 5872 5873
5526 5535 5543 5550 5558 5570 5580 5587 5596 5604 5612 5621 5630 5639 5647 5651 5654 5659 5663 5666 5671 5677 5681 5684 5688 5692 5697 5703 5709 5713 5717 5721 5726 5732 5737 5743 5748 5751 5755 5759 5762 5765 5768 5770 5773 5777 5780 5783 5786 5788 5790 5793 5796 5799 5802 5805 5808 5811 5813 5817 5819 5821 5827 5830 5830 5833 5835 5837 5839 5840 5845 5851 5850 5848 5851 5855 5857 5859 5860 5862 5863 5865 5866 5867 5868 5870 5871 5872
5522 5531 5538 5546 5554 5564 5574 5582 5592 5601 5609 5617 5626 5635 5642 5645 5649 5654 5659 5664 5669 5672 5673 5675 5680 5687 5692 5696 5701 5706 5710 5717 5723 5728 5733 5739 5744 5747 5752 5755 5759 5762 5764 5766 5770 5774 5777 5779 5782 5784 5787 5790 5794 5797 5800 5802 5805 5808 5810 5813 5815 5817 5823 5826 5827 5830 5832 5834 5836 5838 5844 5849 5847 5847 5851 5854 5856 5857 5858 5860 5862 5863 5865 5866 5867 5868 5870 5871
5518 5526 5533 5541 5550 5558 5568 5579 5588 5597 5605 5613 5621 5630 5637 5641 5646 5651 5657 5662 5664 5665 5668 5673 5680 5684 5684 5687 5695 5701 5707 5714 5719 5724 5730 5736 5741 5744 5748 5752 5755 5758 5761 5764 5766 5769 5773 5775 5778 5781 5784 5788 5792 5795 5797 5801 5804 5807 5808 5810 5813 5815 5819 5822 5824 5827 5829 5831 5833 5836 5842 5846 5844 5846 5849 5852 5853 5855 5857 5858 5860 5861 5862 5864 5865 5867 5869 5870
5514 5522 5529 5536 5545 5554 5565 5576 5585 5593 5601 5609 5617 5625 5633 5638 5643 5648 5653 5656 5657 5660 5663 5665 5668 5668 5670 5680 5692 5700 5707 5713 5716 5721 5726 5731 5737 5741 5744 5748 5752 5755 5757 5760 5762 5765 5769 5772 5775 5779 5783 5786 5790 5792 5796 5801 5804 5804 5805 5807 5810 5812 5817 5820 5821 5824 5826 5828 5831 5833 5839 5843 5842 5844 5847 5849 5850 5853 5855 5856 5857 5858 5860 5862 5863 5865 5867 5869
5511 5518 5524 5531 5540 5551 5561 5572 5581 5589 5597 5605 5612 5621 5629 5635 5640 5644 5646 5647 5647 5647 5646 5648 5652 5660 5673 5687 5694 5700 5706 5710 5712 5717 5722 5727 5732 5736 5740 5744 5747 5751 5754 5756 5759 5762 5766 5769 5773 5776 5780 5783 5786 5790 5794 5798 5799 5798 5800 5803 5807 5810 5814 5818 5819 5821 5824 5825 5828 5831 5836 5841 5840 5841 5844 5845 5847 5850 5851 5852 5854 5857 5859 5860 5862 5864 5865 5868
5508 5514 5520 5527 5536 5547 5557 5567 5577 5584 5591 5599 5607 5613 5618 5624 5630 5634 5638 5640 5641 5642 5645 5652 5660 5671 5682 5689 5692 5697 5700 5702 5706 5712 5718 5724 5728 5733 5736 5739 5743 5747 5750 5753 5756 5759 5763 5767 5770 5774 5777 5780 5784 5788 5791 5793 5794 5794 5797 5800 5803 5807 5811 5815 5816 5818 5820 5822 5825 5828 5833 5838 5838 5839 5841 5842 5844 5846 5849 5851 5853 5856 5857 5859 5860 5861 5863 5865
5505 5510 5516 5523 5532 5542 5552 5562 5572 5578 5585 5593 5600 5604 5609 5616 5621 5627 5633 5636 5639 5644 5649 5656 5664 5670 5676 5681 5686 5691 5692 5694 5700 5707 5714 5720 5724 5728 5732 5736 5740 5743 5747 5751 5753 5756 5760 5764 5767 5771 5774 5777 5780 5784 5787 5789 5790 5791 5794 5797 5800 5803 5807 5811 5812 5814 5816 5818 5821 5824 5829 5834 5835 5835 5837 5838 5841 5844 5846 5848 5850 5852 5853 5854 5856 5858 5860 5861
5501 5506 5513 5520 5527 5537 5546 5556 5566 5572 5579 5586 5591 5599 5608 5616 5621 5628 5634 5634 5637 5643 5645 5651 5658 5663 5669 5675 5679 5683 5686 5690 5695 5700 5707 5713 5718 5723 5727 5732 5736 5740 5744 5747 5750 5753 5757 5760 5763 5767 5770 5773 5776 5779 5783 5784 5786 5788 5791 5794 5798 5801 5804 5807 5809 5811 5813 5814 5817 5820 5824 5830 5832 5831 5832 5834 5837 5840 5842 5844 5846 5847 5848 5851 5853 5855 5856 5857
5497 5503 5509 5516 5524 5532 5539 5549 5558 5564 5571 5578 5587 5599 5609 5614 5620 5628 5633 5634 5636 5639 5641 5647 5653 5659 5664 5667 5671 5675 5680 5687 5693 5699 5704 5708 5713 5718 5723 5728 5732 5736 5739 5744 5748 5751 5753 5756 5760 5764 5766 5769 5772 5775 5779 5780 5782 5785 5788 5792 5796 5799 5801 5803 5805 5806 5808 5810 5813 5817 5819 5825 5828 5827 5828 5830 5834 5836 5838 5841 5843 5844 5847 5850 5852 5852 5853 5855
5494 5499 5505 5513 5520 5525 5533 5541 5547 5555 5565 5575 5587 5600 5607 5611 5618 5624 5628 5630 5632 5633 5636 5643 5651 5656 5660 5664 5668 5671 5677 5684 5691 5698 5703 5707 5710 5715 5720 5724 5728 5732 5736 5741 5744 5746 5749 5752 5756 5760 5763 5767 5770 5772 5776 5778 5781 5783 5786 5790 5794 5796 5798 5799 5800 5801 5804 5805 5809 5813 5814 5819 5824 5824 5825 5828 5831 5834 5835 5838 5841 5842 5846 5848 5849 5850 5853 5855
5492 5495 5501 5508 5513 5519 5526 5531 5540 5554 5565 5574 5585 5596 5602 5607 5613 5619 5623 5626 5628 5628 5631 5637 5644 5649 5655 5662 5666 5668 5676 5682 5687 5693 5699 5705 5710 5713 5717 5720 5724 5729 5734 5738 5740 5741 5745 5748 5752 5757 5760 5764 5766 5770 5773 5776 5780 5782 5784 5788 5790 5793 5793 5795 5796 5797 5799 5801 5805 5809 5808 5813 5820 5820 5822 5826 5828 5831 5833 5835 5839 5841 5843 5844 5846 5849 5851 5852
5488 5492 5497 5502 5508 5513 5518 5528 5543 5554 5561 5571 5582 5590 5597 5602 5607 5613 5620 5622 5621 5622 5625 5630 5637 5642 5649 5655 5658 5665 5672 5676 5681 5688 5692 5697 5704 5710 5714 5717 5722 5727 5730 5733 5735 5738 5742 5745 5749 5754 5757 5759 5762 5766 5769 5772 5776 5779 5782 5784 5785 5787 5789 5790 5792 5792 5795 5798 5801 5804 5804 5808 5816 5818 5819 5823 5824 5828 5831 5832 5836 5838 5839 5842 5844 5846 5848 5849
5485 5489 5492 5497 5503 5507 5517 5533 5542 5547 5557 5571 5581 5587 5593 5598 5603 5610 5616 5615 5613 5616 5621 5626 5631 5638 5645 5649 5653 5659 5663 5668 5677 5683 5687 5691 5697 5702 5708 5714 5719 5724 5727 5729 5731 5736 5740 5743 5746 5751 5754 5757 5760 5764 5767 5769 5772 5776 5779 5780 5780 5782 5783 5785 5786 5787 5791 5794 5796 5800 5801 5802 5809 5814 5816 5818 5820 5824 5827 5829 5833 5835 5836 5839 5842 5844 5846 5847
5481 5485 5488 5493 5499 5508 5522 5531 5534 5546 5564 5574 5579 5585 5591 5595 5601 5607 5607 5603 5603 5610 5616 5621 5628 5636 5640 5645 5650 5653 5658 5667 5673 5675 5681 5688 5692 5698 5703 5709 5715 5719 5722 5725 5729 5735 5739 5740 5744 5750 5753 5756 5760 5763 5765 5767 5770 5773 5776 5776 5776 5776 5778 5779 5781 5783 5786 5787 5790 5797 5799 5796 5802 5811 5812 5812 5816 5820 5823 5826 5829 5832 5834 5837 5840 5842 5843 5844
5478 5480 5484 5491 5498 5508 5516 5519 5531 5550 5562 5568 5574 5581 5587 5592 5596 5599 5597 5593 5597 5606 5612 5617 5624 5630 5633 5638 5644 5648 5656 5664 5667 5672 5678 5682 5687 5694 5699 5705 5710 5713 5715 5719 5724 5730 5734 5737 5741 5746 5750 5754 5758 5760 5761 5764 5768 5770 5772 5771 5771 5772 5774 5776 5777 5780 5780 5781 5786 5794 5797 5793 5796 5806 5809 5808 5811 5816 5820 5824 5826 5830 5832 5835 5837 5839 5839 5841
5474 5477 5482 5487 5493 5500 5505 5515 5534 5546 5550 5558 5567 5575 5583 5587 5588 5587 5583 5584 5592 5601 5607 5612 5618 5623 5627 5632 5637 5643 5652 5658 5664 5671 5675 5679 5684 5689 5693 5699 5703 5707 5711 5715 5720 5725 5729 5733 5736 5741 5745 5749 5752 5753 5755 5759 5762 5765 5766 5767 5768 5769 5772 5773 5774 5777 5775 5778 5787 5792 5793 5790 5789 5799 5806 5805 5808 5814 5818 5820 5823 5827 5829 5831 5833 5835 5835 5837
5470 5474 5477 5482 5489 5495 5504 5521 5534 5537 5541 5552 5562 5571 5579 5579 5578 5575 5573 5580 5591 5596 5599 5606 5613 5619 5624 5630 5634 5640 5647 5654 5660 5664 5668 5675 5680 5683 5688 5692 5696 5702 5706 5712 5718 5722 5726 5729 5732 5737 5741 5743 5746 5748 5750 5753 5756 5759 5761 5762 5764 5766 5768 5769 5771 5773 5773 5778 5787 5789 5788 5786 5783 5791 5803 5803 5805 5810 5813 5815 5819 5822 5825 5826 5829 5831 5832 5833
5467 5470 5473 5480 5487 5493 5507 5524 5530 5533 5541 5549 5557 5566 5569 5567 5565 5565 5570 5580 5587 5589 5594 5601 5609 5617 5624 5630 5635 5638 5643 5650 5656 5661 5666 5671 5674 5680 5687 5692 5696 5700 5704 5710 5715 5719 5722 5725 5729 5733 5736 5739 5741 5744 5746 5748 5750 5753 5756 5757 5759 5761 5763 5764 5766 5769 5772 5778 5783 5784 5782 5780 5780 5787 5798 5802 5802 5805 5809 5812 5815 5818 5821 5823 5825 5828 5830 5831
5462 5466 5470 5477 5483 5492 5508 5518 5520 5527 5536 5543 5551 5557 5557 5556 5555 5559 5569 5576 5581 5588 5596 5602 5610 5618 5622 5626 5630 5635 5642 5648 5653 5658 5663 5667 5671 5678 5684 5689 5694 5699 5705 5711 5713 5715 5719 5722 5726 5731 5734 5737 5740 5742 5744 5746 5749 5751 5753 5754 5754 5757 5758 5760 5763 5766 5771 5775 5777 5777 5776 5778 5781 5784 5792 5798 5800 5802 5805 5808 5811 5814 5817 5820 5822 5824 5827 5829
5458 5461 5465 5472 5480 5490 5502 5508 5511 5520 5527 5534 5543 5546 5546 5547 5549 5558 5568 5572 5581 5591 5596 5599 5606 5612 5616 5620 5625 5631 5638 5644 5650 5655 5658 5661 5666 5672 5678 5685 5691 5696 5704 5708 5710 5715 5719 5722 5728 5731 5734 5737 5740 5742 5744 5746 5748 5749 5751 5751 5751 5755 5757 5759 5761 5762 5767 5770 5769 5771 5772 5777 5782 5781 5785 5794 5797 5799 5802 5804 5807 5811 5814 5816 5819 5821 5824 5826
5452 5456 5460 5467 5476 5484 5493 5500 5507 5514 5519 5528 5536 5537 5537 5540 5546 5556 5564 5570 5579 5586 5591 5597 5601 5605 5610 5617 5623 5628 5633 5638 5646 5651 5655 5660 5666 5672 5678 5683 5688 5693 5699 5702 5706 5712 5716 5721 5726 5728 5731 5734 5737 5739 5740 5742 5744 5745 5746 5745 5749 5755 5756 5756 5756 5758 5762 5763 5762 5765 5769 5776 5781 5779 5780 5788 5794 5797 5799 5802 5805 5808 5811 5813 5816 5818 5820 5822
5446 5450 5454 5460 5469 5478 5487 5495 5502 5508 5515 5524 5529 5529 5533 5540 5547 5556 5564 5571 5579 5583 5588 5593 5596 5599 5606 5612 5618 5623 5630 5638 5643 5647 5652 5659 5665 5671 5677 5681 5686 5691 5696 5700 5705 5709 5713 5718 5721 5723 5725 5728 5731 5733 5735 5736 5739 5739 5740 5743 5750 5753 5750 5749 5751 5755 5757 5756 5758 5762 5765 5773 5777 5775 5777 5783 5790 5795 5797 5800 5803 5805 5807 5809 5812 5815 5816 5818
5438 5443 5447 5454 5464 5474 5484 5492 5497 5503 5512 5520 5524 5527 5534 5543 5549 5556 5564 5572 5577 5583 5586 5586 5588 5595 5603 5608 5614 5621 5628 5635 5640 5645 5651 5656 5660 5667 5674 5679 5685 5691 5695 5699 5703 5707 5711 5714 5717 5719 5721 5724 5727 5728 5729 5731 5733 5734 5737 5743 5747 5744 5742 5746 5749 5751 5752 5752 5755 5759 5761 5766 5770 5770 5773 5777 5783 5790 5793 5796 5799 5800 5802 5804 5807 5810 5811 5813
5435 5440 5443 5451 5462 5472 5481 5488 5494 5501 5509 5515 5522 5529 5537 5542 5547 5553 5561 5568 5574 5579 5582 5583 5588 5595 5602 5608 5615 5621 5626 5630 5635 5643 5650 5655 5661 5667 5673 5678 5683 5688 5692 5696 5699 5703 5707 5709 5711 5714 5716 5720 5723 5723 5724 5727 5730 5732 5735 5739 5738 5736 5740 5745 5745 5747 5749 5750 5753 5755 5756 5760 5764 5767 5770 5772 5777 5784 5789 5791 5793 5796 5799 5800 5803 5805 5806 5808
5431 5435 5440 5451 5462 5470 5477 5483 5490 5499 5503 5506 5514 5525 5533 5538 5545 5552 5559 5566 5572 5577 5580 5585 5592 5597 5602 5609 5615 5619 5623 5628 5635 5641 5647 5653 5661 5667 5672 5677 5681 5685 5689 5692 5694 5698 5701 5702 5705 5708 5711 5714 5716 5717 5721 5725 5727 5728 5731 5732 5732 5734 5738 5740 5740 5743 5746 5746 5749 5750 5751 5754 5760 5765 5767 5767 5771 5777 5784 5787 5789 5792 5795 5796 5798 5799 5800 5802
5426 5430 5438 5450 5459 5466 5474 5481 5486 5491 5495 5502 5512 5521 5528 5536 5544 5550 5558 5565 5571 5575 5580 5586 5593 5598 5602 5607 5612 5616 5621 5627 5634 5639 5645 5651 5658 5663 5668 5672 5677 5682 5686 5687 5689 5693 5696 5697 5700 5703 5705 5707 5711 5715 5719 5721 5722 5724 5726 5727 5729 5732 5734 5734 5734 5738 5741 5743 5745 5745 5745 5750 5756 5760 5763 5763 5766 5772 5779 5783 5785 5787 5789 5790 5792 5794 5795 5797
5424 5428 5436 5447 5455 5461 5468 5472 5475 5483 5492 5503 5513 5518 5525 5534 5540 5546 5555 5564 5569 5575 5580 5586 5591 5596 5600 5605 5609 5615 5620 5625 5631 5636 5642 5648 5654 5659 5664 5669 5673 5676 5678 5680 5684 5689 5692 5694 5696 5698 5701 5705 5709 5712 5714 5715 5718 5720 5721 5722 5725 5727 5728 5727 5729 5734 5737 5738 5740 5740 5740 5746 5752 5755 5759 5760 5762 5767 5774 5778 5781 5783 5783 5785 5787 5789 5791 5793
5420 5423 5433 5444 5449 5455 5460 5463 5470 5481 5491 5500 5508 5515 5522 5530 5537 5544 5552 5558 5564 5569 5575 5581 5586 5591 5597 5604 5610 5615 5619 5624 5629 5634 5640 5647 5653 5658 5661 5663 5667 5670 5673 5677 5681 5685 5687 5689 5692 5694 5698 5701 5703 5706 5709 5711 5714 5715 5715 5719 5720 5720 5722 5722 5725 5732 5733 5731 5735 5736 5735 5742 5750 5752 5755 5758 5759 5762 5768 5773 5775 5777 5779 5780 5781 5783 5786 5788
5417 5423 5435 5444 5448 5453 5455 5459 5469 5478 5485 5496 5507 5514 5520 5527 5534 5541 5547 5552 5559 5565 5571 5577 5584 5590 5596 5602 5607 5613 5617 5623 5628 5633 5639 5644 5649 5652 5655 5659 5663 5665 5668 5671 5676 5680 5682 5684 5686 5689 5693 5695 5697 5701 5704 5706 5708 5710 5713 5716 5715 5715 5718 5718 5721 5726 5725 5726 5732 5732 5732 5740 5748 5749 5751 5754 5755 5758 5762 5767 5769 5771 5773 5774 5775 5778 5780 5782
5416 5425 5434 5441 5447 5451 5451 5454 5462 5470 5480 5493 5502 5509 5516 5524 5530 5537 5543 5550 5557 5565 5572 5578 5583 5589 5594 5599 5605 5611 5617 5621 5625 5631 5637 5641 5645 5649 5651 5655 5659 5662 5666 5670 5674 5676 5677 5678 5681 5685 5687 5690 5694 5697 5700 5703 5706 5708 5709 5710 5709 5712 5713 5713 5717 5719 5718 5724 5730 5728 5730 5738 5742 5745 5747 5748 5749 5752 5757 5762 5764 5765 5767 5768 5770 5772 5773 5775
5411 5419 5429 5435 5441 5445 5451 5458 5465 5471 5480 5488 5495 5503 5513 5520 5528 5537 5545 5551 5558 5565 5572 5576 5581 5586 5591 5595 5601 5606 5611 5617 5623 5628 5633 5638 5642 5646 5649 5653 5658 5662 5666 5669 5671 5673 5673 5675 5679 5681 5684 5688 5691 5695 5699 5703 5704 5704 5704 5705 5706 5707 5707 5709 5712 5711 5714 5723 5724 5722 5729 5733 5734 5739 5741 5740 5742 5746 5751 5756 5758 5759 5761 5762 5764 5766 5767 5769
5405 5410 5418 5426 5433 5442 5452 5462 5468 5474 5481 5486 5492 5501 5508 5517 5526 5535 5542 5547 5553 5561 5567 5571 5576 5581 5586 5591 5595 5600 5607 5613 5619 5624 5630 5635 5639 5643 5648 5653 5657 5660 5662 5664 5666 5668 5669 5672 5676 5679 5683 5687 5690 5693 5696 5697 5697 5698 5701 5702 5703 5703 5703 5704 5704 5705 5713 5717 5714 5718 5726 5726 5728 5733 5733 5734 5739 5742 5745 5749 5751 5753 5755 5757 5759 5761 5762 5764
5405 5408 5411 5416 5423 5434 5445 5454 5462 5472 5483 5490 5496 5502 5508 5516 5524 5529 5535 5542 5548 5556 5562 5568 5573 5578 5584 5589 5594 5599 5604 5609 5614 5620 5626 5632 5637 5641 5645 5649 5652 5654 5657 5659 5661 5663 5665 5669 5674 5678 5681 5683 5685 5688 5690 5690 5691 5694 5695 5696 5698 5699 5700 5700 5700 5706 5711 5709 5709 5718 5722 5720 5724 5727 5725 5728 5734 5736 5738 5742 5745 5748 5750 5752 5754 5755 5757 5758
5401 5409 5418 5422 5424 5428 5436 5445 5456 5469 5481 5490 5498 5504 5510 5514 5519 5525 5533 5539 5546 5552 5558 5564 5570 5577 5583 5589 5594 5598 5601 5605 5610 5615 5620 5626 5631 5636 5641 5644 5647 5650 5652 5654 5657 5659 5663 5668 5674 5676 5677 5679 5681 5683 5685 5686 5687 5688 5689 5691 5693 5693 5694 5695 5699 5705 5706 5703 5709 5716 5716 5716 5720 5719 5719 5724 5728 5730 5733 5735 5738 5742 5745 5746 5748 5749 5751 5753
5397 5407 5417 5425 5432 5438 5443 5449 5459 5468 5477 5484 5491 5498 5505 5511 5518 5527 5534 5539 5544 5551 5558 5564 5571 5577 5582 5587 5592 5595 5599 5604 5608 5612 5618 5622 5626 5630 5633 5637 5642 5646 5649 5651 5654 5657 5662 5667 5671 5672 5674 5675 5676 5679 5681 5681 5681 5682 5684 5686 5688 5689 5690 5693 5697 5699 5697 5698 5705 5707 5707 5711 5714 5712 5715 5720 5721 5724 5728 5729 5732 5735 5738 5739 5741 5742 5744 5747
5401 5408 5414 5421 5433 5446 5452 5456 5462 5468 5474 5480 5486 5494 5502 5511 5519 5526 5533 5539 5545 5551 5558 5565 5572 5578 5582 5585 5589 5594 5600 5607 5611 5614 5617 5619 5620 5623 5627 5631 5636 5641 5643 5647 5651 5654 5659 5664 5666 5668 5669 5671 5672 5675 5676 5676 5676 5677 5678 5681 5683 5686 5689 5691 5694 5693 5691 5695 5700 5699 5700 5706 5707 5706 5710 5713 5715 5719 5722 5723 5726 5728 5730 5732 5733 5735 5738 5741
5406 5416 5425 5431 5436 5441 5448 5455 5462 5467 5471 5478 5485 5493 5501 5509 5518 5525 5532 5539 5545 5553 5560 5565 5569 5574 5578 5582 5588 5595 5601 5605 5608 5612 5616 5618 5619 5621 5623 5627 5631 5634 5637 5642 5645 5648 5652 5657 5660 5662 5663 5665 5669 5670 5670 5671 5671 5670 5673 5679 5683 5684 5686 5687 5688 5688 5689 5693 5695 5692 5695 5701 5701 5703 5706 5708 5710 5713 5715 5717 5720 5721 5722 5724 5726 5729 5732 5735
5406 5416 5427 5435 5438 5440 5445 5452 5458 5464 5471 5479 5487 5495 5503 5511 5518 5524 5530 5536 5542 5549 5557 5562 5566 5569 5574 5580 5587 5592 5596 5598 5602 5606 5611 5616 5620 5622 5625 5628 5631 5633 5635 5638 5642 5645 5648 5651 5655 5657 5658 5661 5664 5664 5665 5664 5663 5666 5676 5682 5681 5680 5681 5682 5684 5686 5687 5688 5687 5688 5694 5696 5696 5700 5704 5706 5707 5708 5710 5713 5715 5714 5715 5716 5720 5724 5728 5731